This is the latest recevied weather packets stored in our database for station/object N1MCJ. If no packets are shown the sender has not sent any weather packets the latest 10 day(s).
| Time | Temp. | Humidity | Pressure | Rain* | Wind** | Luminosity | Snow |
|---|---|---|---|---|---|---|---|
| 1777604660 | 7.78° C | 99% | 1000.5 hPa | 0 mm | - | 0 W/m² | - |
| 1777603760 | 7.78° C | 99% | 1000.4 hPa | 0 mm | - | 0 W/m² | - |
| 1777602859 | 7.22° C | 99% | 1000.5 hPa | 0 mm | - | 0 W/m² | - |
| 1777601957 | 7.78° C | 99% | 1000.4 hPa | 0 mm | - | 0 W/m² | - |
| 1777601056 | 7.78° C | 99% | 1000 hPa | 0 mm | - | 0 W/m² | - |
| 1777600156 | 8.33° C | 99% | 999.9 hPa | 0 mm | - | 0 W/m² | - |
| 1777599250 | 8.33° C | 99% | 999.8 hPa | 0 mm | - | 0 W/m² | - |
| 1777598345 | 8.89° C | 99% | 999.6 hPa | 0 mm | - | 0 W/m² | - |
| 1777597444 | 9.44° C | 98% | 999.3 hPa | 0 mm | - | 0 W/m² | - |
| 1777596544 | 9.44° C | 98% | 999.4 hPa | 0 mm | - | 0 W/m² | - |
| 1777595638 | 10° C | 98% | 999.4 hPa | 0 mm | - | 0 W/m² | - |
| 1777594734 | 10° C | 97% | 999.6 hPa | 0 mm | - | 0 W/m² | - |
| 1777593834 | 10.56° C | 97% | 999.2 hPa | 0 mm | - | 0 W/m² | - |
| 1777592930 | 10.56° C | 97% | 999.2 hPa | 0 mm | - | 0 W/m² | - |
| 1777592029 | 11.11° C | 97% | 999.2 hPa | 0 mm | - | 2 W/m² | - |
| 1777591130 | 11.11° C | 98% | 998.9 hPa | 0 mm | - | 8 W/m² | - |
| 1777590230 | 11.11° C | 98% | 998.9 hPa | 0 mm | - | 19 W/m² | - |
| 1777589326 | 11.11° C | 98% | 998.6 hPa | 0 mm | - | 16 W/m² | - |
| 1777588421 | 11.67° C | 99% | 998.6 hPa | 0 mm | - | 22 W/m² | - |
| 1777587518 | 11.67° C | 98% | 998.6 hPa | 0 mm | - | 31 W/m² | - |
| 1777586619 | 11.67° C | 97% | 998.5 hPa | 1.27 mm | - | 12 W/m² | - |
| 1777585718 | 11.67° C | 97% | 998.3 hPa | 1.27 mm | - | 29 W/m² | - |
| 1777584816 | 12.22° C | 95% | 998.1 hPa | 1.78 mm | - | 16 W/m² | - |
| 1777583915 | 12.22° C | 91% | 997.9 hPa | 0 mm | - | 20 W/m² | - |
| 1777583011 | 12.78° C | 91% | 997.7 hPa | 0 mm | - | 33 W/m² | - |
* Rain latest hour (hover to see other rain measurements)
** Current wind speed in m/s (hover to see current wind gust speed)